Location: Unspecified
(0.0000°N, 0.0000°E)
Time: 22:11:42
(UTC+00:00)

Envisat - Pass Details

Date: 29 May 2017
Orbit: 764 x 766 km, 98.2° (Epoch: 23 November)

Event Time Altitude Azimuth Distance (km) Brightness Sun altitude
Exits shadow 21:05:14 12° 326° (NNW) 2,178 5.8 -42.7°
Drops below altitude 10° 21:05:33 10° 328° (NNW) 2,294 6.0 -42.8°
Sets 21:07:57 0° 335° (NNW) 3,217 6.8 -43.3°
